Poplar Bluff, MO

11:44 PM CDT on March 23, 2017 (GMT -0500)
Poplar Bluff Municipal

Weather History for KPOF - January, 2014

Change the Weather History Date:

Wednesday, January 1, 2014

  Actual Average Record
Temperature  
Mean Temperature 36 °F -  
Max Temperature 46 °F 42 °F 65 °F (1952)
Min Temperature 25 °F 23 °F -2 °F (1928)
Degree Days  
Heating Degree Days 30    
Moisture  
Dew Point 29 °F    
Average Humidity 73    
Maximum Humidity 82    
Minimum Humidity 54    
Precipitation  
Precipitation 0.03 in - - ()
Sea Level Pressure  
Sea Level Pressure 30.12 in    
Wind  
Wind Speed 5 mph (South)    
Max Wind Speed 13 mph    
Max Gust Speed -    
Visibility 10 miles    
Events Rain    
Averages and records for this station are not official NWS values.
T = Trace of Precipitation, MM = Missing Value Source: NWS Daily Summary

Daily Weather History Graph

Daily Weather History Graph

Search for Another Location

Airport or City:

Trip Planner

Search our weather history database for the weather conditions in past years. The results will help you decide how hot, cold, wet, or windy it might be!

Date:

Astronomy

Jan. 01, 2014 Rise Set
Actual Time 7:13 AM CST 4:56 PM CST
Civil Twilight 6:45 AM CST 5:24 PM CST
Nautical Twilight 6:12 AM CST 5:57 PM CST
Astronomical Twilight 5:41 AM CST 6:28 PM CST
Moon 7:06 AM CST (1/1) 5:39 PM CST (1/1)
Length of Visible Light 10h 39m
Length of Day
9h 42m
New Moon, 0% of the Moon is Illuminated
Jan 1
New Moon
Jan 7
First Quarter
Jan 15
Full
Jan 23
Last Quarter
Jan 30
New

Hourly Weather History & Observations

Time (CST) Temp. Windchill Dew Point Humidity Pressure Visibility Wind Dir Wind Speed Gust Speed Precip Events Conditions
12:53 AM 32.0 °F 25.6 °F 26.1 °F 79% 30.27 in 10.0 mi SSW 6.9 mph - N/A   Clear
1:53 AM 32.0 °F 28.7 °F 26.1 °F 79% 30.27 in 10.0 mi SSW 3.5 mph - N/A   Clear
2:53 AM 30.0 °F - 24.1 °F 79% 30.25 in 10.0 mi Calm Calm - N/A   Clear
3:53 AM 27.0 °F 23.0 °F 21.9 °F 81% 30.25 in 9.0 mi NE 3.5 mph - N/A   Clear
4:53 AM 27.0 °F 21.6 °F 21.9 °F 81% 30.22 in 10.0 mi South 4.6 mph - N/A   Clear
5:53 AM 27.0 °F 21.6 °F 21.9 °F 81% 30.22 in 10.0 mi South 4.6 mph - N/A   Clear
6:53 AM 25.0 °F - 19.9 °F 81% 30.23 in 9.0 mi Calm Calm - N/A   Clear
7:53 AM 28.0 °F - 21.9 °F 78% 30.22 in 8.0 mi Calm Calm - N/A   Clear
8:53 AM 34.0 °F 28.8 °F 28.0 °F 79% 30.23 in 10.0 mi South 5.8 mph - N/A   Clear
9:53 AM 37.9 °F 32.1 °F 28.9 °F 70% 30.22 in 10.0 mi South 8.1 mph - N/A   Clear
10:53 AM 42.1 °F 35.2 °F 28.9 °F 60% 30.20 in 10.0 mi SSW 12.7 mph - N/A   Clear
11:53 AM 45.0 °F 38.9 °F 30.0 °F 56% 30.16 in 10.0 mi SSW 12.7 mph - N/A   Clear
12:53 PM 45.0 °F 40.6 °F 30.9 °F 58% 30.12 in 10.0 mi SSW 8.1 mph - N/A   Clear
1:53 PM 46.0 °F 41.4 °F 30.9 °F 56% 30.08 in 10.0 mi South 9.2 mph - N/A   Clear
2:53 PM 46.9 °F - 30.9 °F 54% 30.06 in 10.0 mi SSE 10.4 mph - N/A   Clear
3:53 PM 46.9 °F - 32.0 °F 56% 30.05 in 10.0 mi ESE 5.8 mph - N/A   Clear
4:53 PM 45.0 °F 40.1 °F 33.1 °F 63% 30.01 in 10.0 mi SE 9.2 mph - N/A   Scattered Clouds
5:53 PM 44.1 °F 40.8 °F 35.1 °F 71% 30.01 in 7.0 mi SE 5.8 mph - 0.01 in Rain Light Rain
6:53 PM 43.0 °F 41.3 °F 35.1 °F 74% 30.01 in 10.0 mi East 3.5 mph - 0.02 in   Overcast
7:53 PM 42.1 °F - 36.0 °F 79% 29.99 in 10.0 mi Calm Calm - N/A   Overcast
8:53 PM 42.1 °F - 36.0 °F 79% 29.99 in 10.0 mi Calm Calm - N/A   Overcast
9:53 PM 41.0 °F - 36.0 °F 82% 29.98 in 8.0 mi Calm Calm - N/A   Overcast
10:53 PM 41.0 °F - 36.0 °F 82% 29.96 in 10.0 mi Calm Calm - N/A   Overcast
11:53 PM 41.0 °F 38.0 °F 36.0 °F 82% 29.96 in 9.0 mi North 4.6 mph - N/A   Overcast